GW0067 Weather Reports


Display with metric or nautical units.
time (UTC)temp
F
wind
direction
speed
MPH
gust
MPH
rain 1hr
in
rain 24hr
in
rain mn
in
humidity
%
barometer
mb
20260507105013 61 249 0.0 0.0 0.00 0.00 0.00 47 1016.4
20260507103506 61 229 0.0 0.0 0.00 0.00 0.00 49 1016.4
20260507103027 60 248 0.0 0.0 0.00 0.00 0.00 54 1016.5
20260507102508 59 248 0.0 0.0 0.00 0.00 0.00 50 1016.5
20260507102006 60 66 0.0 4.0 0.00 0.00 0.00 51 1016.6
20260507101508 60 1 0.0 4.0 0.00 0.00 0.00 47 1016.6
20260507101005 61 23 0.0 0.0 0.00 0.00 0.00 50 1016.6
20260507100504 60 308 0.0 0.0 0.00 0.00 0.00 51 1016.6
20260507100006 59 56 0.0 0.0 0.00 0.00 0.00 52 1016.7
20260507095503 58 120 0.0 0.0 0.00 0.00 0.00 56 1016.7
20260507095003 58 261 0.0 0.0 0.00 0.00 0.00 57 1016.7
20260507094521 57 251 0.0 0.0 0.00 0.00 0.00 61 1016.7
20260507094006 57 247 0.0 0.0 0.00 0.00 0.00 59 1016.7
20260507093504 58 86 0.0 0.0 0.00 0.00 0.00 60 1016.7
20260507093004 58 86 0.0 0.0 0.00 0.00 0.00 59 1016.6
20260507092504 58 86 0.0 0.0 0.00 0.00 0.00 59 1016.7
20260507092005 59 86 0.0 2.0 0.00 0.00 0.00 58 1016.7
20260507091511 58 34 0.0 2.0 0.00 0.00 0.00 60 1016.7
20260507091006 58 204 0.0 4.0 0.00 0.00 0.00 63 1016.7
20260507090505 57 79 0.0 4.0 0.00 0.00 0.00 62 1016.7
20260507090012 57 30 0.0 2.0 0.00 0.00 0.00 65 1016.7
20260507085504 57 77 0.0 2.0 0.00 0.00 0.00 65 1016.8
20260507085009 56 279 0.0 3.0 0.00 0.00 0.00 68 1016.8
20260507084516 56 256 0.0 3.0 0.00 0.00 0.00 69 1016.8
20260507084003 56 52 0.0 0.0 0.00 0.00 0.00 71 1016.8
20260507083502 55 52 0.0 0.0 0.00 0.00 0.00 72 1016.8
20260507083004 55 39 0.0 0.0 0.00 0.00 0.00 74 1016.8
20260507082503 55 281 0.0 0.0 0.00 0.00 0.00 76 1016.8
20260507082002 54 221 0.0 0.0 0.00 0.00 0.00 75 1016.8
20260507080502 53 54 0.0 1.0 0.00 0.00 0.00 78 1016.8
20260507075506 52 212 0.0 0.0 0.00 0.00 0.00 81 1016.8
20260507074512 50 46 0.0 0.0 0.00 0.00 0.00 82 1016.7
20260507073507 50 252 0.0 0.0 0.00 0.00 0.00 85 1016.8
20260507073017 49 252 0.0 0.0 0.00 0.00 0.00 87 1016.8
20260507072503 47 252 0.0 0.0 0.00 0.00 0.00 87 1016.8
20260507072002 47 74 0.0 0.0 0.00 0.00 0.00 89 1016.7
20260507070502 45 275 0.0 0.0 0.00 0.00 0.00 91 1016.7
20260507070010 44 256 0.0 0.0 0.00 0.00 0.00 91 1016.7
20260507065503 43 256 0.0 0.0 0.00 0.00 0.00 91 1016.8
20260507065004 42 255 0.0 0.0 0.00 0.00 0.00 91 1016.8
20260507064507 42 256 0.0 0.0 0.00 0.00 0.00 92 1016.8
20260507064007 41 255 0.0 0.0 0.00 0.00 0.00 92 1016.8
20260507063509 40 255 0.0 0.0 0.00 0.00 0.00 92 1016.7
20260507063016 40 255 0.0 0.0 0.00 0.00 0.00 92 1016.7
20260507062512 39 255 0.0 0.0 0.00 0.00 0.00 92 1016.6
20260507062008 38 255 0.0 0.0 0.00 0.00 0.00 92 1016.6
20260507061520 38 50 0.0 0.0 0.00 0.00 0.00 92 1016.6
20260507061011 37 112 0.0 0.0 0.00 0.00 0.00 92 1016.6
20260507060005 37 112 0.0 0.0 0.00 0.00 0.00 92 1016.5
20260507055504 36 112 0.0 0.0 0.00 0.00 0.00 92 1016.6
20260507055002 36 112 0.0 0.0 0.00 0.00 0.00 92 1016.5
20260507054508 36 112 0.0 0.0 0.00 0.00 0.00 92 1016.4
20260507054003 36 112 0.0 0.0 0.00 0.00 0.00 92 1016.4
20260507053502 36 112 0.0 0.0 0.00 0.00 0.00 92 1016.4
20260507053010 36 112 0.0 0.0 0.00 0.00 0.00 92 1016.3
20260507052507 35 112 0.0 0.0 0.00 0.00 0.00 92 1016.3
20260507052004 35 112 0.0 0.0 0.00 0.00 0.00 92 1016.3
20260507051008 35 112 0.0 0.0 0.00 0.00 0.00 92 1016.2
20260507050033 34 112 0.0 0.0 0.00 0.00 0.00 92 1016.2
20260507045512 34 112 0.0 0.0 0.00 0.00 0.00 92 1016.1
20260507045009 34 112 0.0 0.0 0.00 0.00 0.00 92 1016.0
20260507044506 34 112 0.0 0.0 0.00 0.00 0.00 92 1016.0
20260507044002 34 112 0.0 0.0 0.00 0.00 0.00 92 1016.0
20260507043504 34 112 0.0 0.0 0.00 0.00 0.00 92 1016.0
20260507042504 34 112 0.0 0.0 0.00 0.00 0.00 92 1015.9
20260507042007 34 112 0.0 0.0 0.00 0.00 0.00 92 1015.9
20260507041524 34 112 0.0 0.0 0.00 0.00 0.00 92 1016.0
20260507041004 34 112 0.0 0.0 0.00 0.00 0.00 92 1016.0
20260507040505 34 112 0.0 0.0 0.00 0.00 0.00 92 1016.1
20260507040019 34 112 0.0 0.0 0.00 0.00 0.00 92 1016.1
20260507035508 34 112 0.0 0.0 0.00 0.00 0.00 92 1016.0
20260507035011 34 112 0.0 0.0 0.00 0.00 0.00 91 1016.0
20260507034523 34 112 0.0 0.0 0.00 0.00 0.00 92 1016.0
20260507034009 35 112 0.0 0.0 0.00 0.00 0.00 91 1016.0
20260507033509 35 112 0.0 0.0 0.00 0.00 0.00 91 1016.0
20260507033024 35 112 0.0 0.0 0.00 0.00 0.00 91 1015.9
20260507032510 35 112 0.0 0.0 0.00 0.00 0.00 91 1016.0
20260507032003 35 112 0.0 0.0 0.00 0.00 0.00 91 1016.0
20260507031510 35 112 0.0 0.0 0.00 0.00 0.00 91 1016.1
20260507031003 35 112 0.0 0.0 0.00 0.00 0.00 91 1016.0
20260507030511 35 112 0.0 0.0 0.00 0.00 0.00 91 1016.0
20260507030026 35 112 0.0 0.0 0.00 0.00 0.00 91 1016.0
20260507025505 36 112 0.0 0.0 0.00 0.00 0.00 91 1016.0
20260507025006 36 112 0.0 0.0 0.00 0.00 0.00 91 1016.0
20260507024525 36 112 0.0 0.0 0.00 0.00 0.00 91 1016.0
20260507024008 36 112 0.0 0.0 0.00 0.00 0.00 91 1016.0
20260507023506 36 112 0.0 0.0 0.00 0.00 0.00 91 1015.9
20260507023022 36 112 0.0 0.0 0.00 0.00 0.00 91 1016.0
20260507022509 36 112 0.0 0.0 0.00 0.00 0.00 91 1015.9
20260507022008 36 112 0.0 0.0 0.00 0.00 0.00 91 1015.9
20260507021522 36 112 0.0 0.0 0.00 0.00 0.00 91 1015.9
20260507021011 36 112 0.0 0.0 0.00 0.00 0.00 91 1015.9
20260507020508 37 112 0.0 0.0 0.00 0.00 0.00 91 1015.9
20260507020012 37 112 0.0 0.0 0.00 0.00 0.00 91 1015.8
20260507015508 37 112 0.0 0.0 0.00 0.00 0.00 91 1015.8
20260507015008 37 112 0.0 0.0 0.00 0.00 0.00 91 1015.8
20260507014517 37 112 0.0 0.0 0.00 0.00 0.00 91 1015.8
20260507014009 37 112 0.0 0.0 0.00 0.00 0.00 91 1015.8
20260507013507 37 112 0.0 0.0 0.00 0.00 0.00 91 1015.8
20260507013021 38 112 0.0 0.0 0.00 0.00 0.00 91 1015.8
20260507012510 38 112 0.0 0.0 0.00 0.00 0.00 90 1015.8
20260507012009 38 112 0.0 0.0 0.00 0.00 0.00 91 1015.9
20260507011522 38 112 0.0 0.0 0.00 0.00 0.00 90 1015.9
20260507011004 38 112 0.0 0.0 0.00 0.00 0.00 90 1015.8
20260507010504 38 112 0.0 0.0 0.00 0.00 0.00 90 1015.8
20260507010008 38 112 0.0 0.0 0.00 0.00 0.00 90 1015.8
20260507005505 38 112 0.0 0.0 0.00 0.00 0.00 90 1015.8
20260507005006 39 112 0.0 0.0 0.00 0.00 0.00 90 1015.8
20260507004519 39 112 0.0 0.0 0.00 0.00 0.00 90 1015.7
20260507004006 39 112 0.0 0.0 0.00 0.00 0.00 90 1015.8
20260507003506 39 112 0.0 0.0 0.00 0.00 0.00 90 1015.8
20260507003022 39 112 0.0 0.0 0.00 0.00 0.00 89 1015.8
20260507002507 39 112 0.0 0.0 0.00 0.00 0.00 89 1015.9
20260507002011 40 112 0.0 0.0 0.00 0.00 0.00 89 1015.8
20260507001523 40 112 0.0 0.0 0.00 0.00 0.00 89 1015.9
20260507001007 40 112 0.0 0.0 0.00 0.00 0.00 89 1015.9
20260507000508 40 112 0.0 0.0 0.00 0.00 0.00 89 1015.9
20260507000026 40 112 0.0 0.0 0.00 0.00 0.00 89 1015.9
20260506235508 41 112 0.0 0.0 0.00 0.00 0.00 88 1015.9
20260506235005 41 112 0.0 0.0 0.00 0.00 0.00 88 1015.9
20260506234512 41 112 0.0 0.0 0.00 0.00 0.00 88 1015.9
20260506234005 41 112 0.0 0.0 0.00 0.00 0.00 88 1015.8
20260506233507 41 112 0.0 0.0 0.00 0.00 0.00 88 1015.8
20260506233014 42 112 0.0 0.0 0.00 0.00 0.00 87 1015.8
20260506232504 42 112 0.0 0.0 0.00 0.00 0.00 87 1015.8
20260506232008 42 112 0.0 0.0 0.00 0.00 0.00 87 1015.7
20260506231518 42 112 0.0 0.0 0.00 0.00 0.00 87 1015.7
20260506231012 42 112 0.0 0.0 0.00 0.00 0.00 86 1015.7
20260506230507 43 112 0.0 0.0 0.00 0.00 0.00 86 1015.7
20260506230027 43 112 0.0 0.0 0.00 0.01 0.00 86 1015.7
20260506225508 43 112 0.0 0.0 0.00 0.01 0.01 85 1015.7
20260506225008 43 112 0.0 0.0 0.00 0.03 0.01 85 1015.7
20260506224525 43 112 0.0 0.0 0.00 0.04 0.01 85 1015.7
20260506224010 43 112 0.0 0.0 0.00 0.04 0.01 83 1015.6
20260506223510 44 347 0.0 0.0 0.00 0.04 0.01 83 1015.6
20260506223009 44 347 0.0 0.0 0.00 0.04 0.01 83 1015.7
20260506222504 44 347 0.0 0.0 0.00 0.04 0.01 82 1015.7
20260506222005 44 347 0.0 0.0 0.00 0.04 0.01 81 1015.6
20260506221514 44 347 0.0 0.0 0.00 0.04 0.01 80 1015.5
20260506221007 45 347 0.0 0.0 0.00 0.04 0.01 79 1015.4
20260506220507 45 347 0.0 0.0 0.00 0.04 0.01 79 1015.4
20260506220023 45 347 0.0 0.0 0.00 0.04 0.01 78 1015.4
20260506215512 46 347 0.0 0.0 0.00 0.04 0.01 76 1015.4
20260506215008 46 347 0.0 0.0 0.00 0.04 0.01 75 1015.3
20260506214524 47 347 0.0 0.0 0.00 0.04 0.01 74 1015.4
20260506214010 47 347 0.0 0.0 0.00 0.04 0.01 74 1015.4
20260506213511 48 347 0.0 0.0 0.00 0.04 0.01 73 1015.4
20260506213027 48 347 0.0 0.0 0.00 0.04 0.01 72 1015.3
20260506212507 48 347 0.0 0.0 0.00 0.04 0.01 72 1015.3
20260506212007 49 347 0.0 0.0 0.00 0.04 0.01 71 1015.4
20260506211530 49 347 0.0 0.0 0.00 0.04 0.01 70 1015.4
20260506211007 50 347 0.0 0.0 0.00 0.04 0.01 69 1015.4
20260506210507 50 347 0.0 0.0 0.00 0.04 0.01 68 1015.3
20260506210015 50 347 0.0 0.0 0.00 0.04 0.01 67 1015.3
20260506205507 50 82 0.0 0.0 0.00 0.04 0.01 67 1015.2
20260506205008 51 45 0.0 0.0 0.00 0.04 0.01 66 1015.2
20260506204519 51 45 0.0 0.0 0.00 0.04 0.01 66 1015.1
20260506204007 51 79 0.0 0.0 0.00 0.04 0.01 65 1015.1
20260506203508 51 79 0.0 0.0 0.00 0.04 0.01 65 1015.1
20260506203023 51 79 0.0 0.0 0.00 0.04 0.01 64 1015.1
20260506202510 51 96 0.0 0.0 0.00 0.04 0.01 64 1015.1
20260506202012 51 106 0.0 0.0 0.00 0.04 0.01 63 1015.0
20260506201536 52 77 0.0 0.0 0.00 0.04 0.01 63 1015.0
20260506201008 52 75 0.0 0.0 0.00 0.04 0.01 62 1014.9
20260506200509 52 97 0.0 0.0 0.00 0.04 0.01 62 1014.8
20260506200026 52 316 0.0 0.0 0.00 0.04 0.01 62 1014.8
20260506195508 52 239 0.0 0.0 0.00 0.04 0.01 62 1014.7
20260506195008 52 253 0.0 0.0 0.00 0.04 0.01 62 1014.6
20260506194515 52 230 0.0 0.0 0.00 0.04 0.01 61 1014.6
20260506194007 52 251 0.0 0.0 0.00 0.04 0.01 62 1014.5
20260506193508 52 255 0.0 0.0 0.00 0.04 0.01 62 1014.4
20260506193025 52 230 0.0 0.0 0.00 0.04 0.01 62 1014.3
20260506192508 53 98 0.0 0.0 0.00 0.04 0.01 62 1014.4
20260506192010 53 250 0.0 0.0 0.00 0.04 0.01 62 1014.3
20260506191524 53 245 0.0 0.0 0.00 0.04 0.01 61 1014.3
20260506191011 53 252 0.0 0.0 0.00 0.04 0.01 62 1014.2
20260506190512 53 250 0.0 0.0 0.00 0.04 0.01 62 1014.3
20260506190029 53 251 0.0 0.0 0.00 0.04 0.01 62 1014.2
20260506185508 53 259 0.0 0.0 0.00 0.04 0.01 62 1014.2
20260506185011 53 259 0.0 0.0 0.00 0.04 0.01 61 1014.2
20260506184527 53 258 0.0 0.0 0.00 0.04 0.01 61 1014.2
20260506184011 53 258 0.0 0.0 0.00 0.04 0.01 62 1014.2
20260506183510 53 82 0.0 0.0 0.00 0.04 0.01 62 1014.2
20260506183018 54 257 0.0 0.0 0.00 0.04 0.01 61 1014.2
20260506182507 54 257 0.0 0.0 0.00 0.04 0.01 61 1014.1
20260506182012 54 241 0.0 0.0 0.00 0.04 0.01 61 1014.1
20260506181522 54 102 0.0 0.0 0.00 0.04 0.01 60 1014.1
20260506180509 54 237 0.0 0.0 0.00 0.04 0.01 59 1014.0
20260506180031 54 261 0.0 0.0 0.00 0.04 0.01 59 1013.9
20260506174531 54 150 0.0 0.0 0.00 0.04 0.01 58 1013.8
20260506174010 54 251 0.0 0.0 0.00 0.04 0.01 58 1013.8
20260506173510 55 228 0.0 0.0 0.00 0.04 0.01 58 1013.8
20260506173028 55 238 0.0 0.0 0.00 0.04 0.01 58 1013.8
20260506172507 55 94 0.0 0.0 0.00 0.04 0.01 58 1013.7
20260506172013 55 241 0.0 0.0 0.00 0.04 0.01 58 1013.7
20260506171539 55 162 0.0 1.0 0.00 0.04 0.01 58 1013.7
20260506171011 55 79 0.0 0.0 0.00 0.04 0.01 58 1013.7
20260506170514 56 264 0.0 1.0 0.00 0.04 0.01 58 1013.7
20260506170024 56 98 0.0 4.0 0.00 0.04 0.01 57 1013.7
20260506165508 55 235 0.0 4.0 0.00 0.04 0.01 58 1013.7
20260506165015 55 236 0.0 0.0 0.00 0.04 0.01 58 1013.7
20260506164531 55 250 0.0 0.0 0.00 0.04 0.01 57 1013.7
20260506163509 55 65 0.0 0.0 0.00 0.04 0.01 58 1013.7
20260506163028 56 81 0.0 0.0 0.00 0.04 0.01 57 1013.7
20260506162509 56 134 0.0 0.0 0.00 0.04 0.01 58 1013.7
20260506161510 56 26 0.0 3.0 0.00 0.04 0.01 55 1013.6
20260506161005 57 47 0.0 3.0 0.00 0.04 0.01 54 1013.7
20260506160505 57 214 0.0 0.0 0.00 0.04 0.01 53 1013.6
20260506160010 57 112 0.0 0.0 0.00 0.04 0.01 55 1013.7
20260506155508 56 53 0.0 4.0 0.00 0.04 0.01 55 1013.6
20260506155004 56 236 0.0 4.0 0.00 0.04 0.01 56 1013.6
20260506154511 56 261 0.0 0.0 0.00 0.04 0.01 57 1013.6
20260506154006 56 74 0.0 0.0 0.00 0.04 0.01 57 1013.6
20260506153505 56 8 0.0 5.0 0.00 0.04 0.01 57 1013.7
20260506153012 56 33 0.0 5.0 0.00 0.04 0.01 56 1013.8
20260506152505 57 20 0.0 4.0 0.00 0.04 0.01 57 1013.7
20260506151511 58 101 0.0 4.0 0.00 0.04 0.01 54 1013.8
20260506150013 57 63 0.0 1.0 0.00 0.04 0.01 56 1013.7
20260506145507 57 64 0.0 5.0 0.00 0.04 0.01 57 1013.8
20260506145007 57 207 0.0 7.0 0.00 0.04 0.01 55 1013.8
20260506144505 57 274 0.0 8.0 0.00 0.04 0.01 53 1013.9
20260506144006 58 79 0.0 8.0 0.00 0.04 0.01 54 1013.7
20260506143505 58 98 0.0 1.0 0.00 0.04 0.01 55 1013.7
20260506143007 58 246 0.0 8.0 0.00 0.04 0.01 54 1013.7
20260506142505 58 60 0.0 8.0 0.00 0.04 0.01 51 1013.7
20260506142007 59 236 0.0 5.0 0.00 0.04 0.01 51 1013.7
20260506141514 58 30 1.0 5.0 0.00 0.04 0.01 55 1013.7
20260506141008 58 53 0.0 5.0 0.00 0.04 0.01 53 1013.7
20260506140024 57 92 0.0 8.0 0.00 0.04 0.01 54 1013.7
20260506135507 58 42 1.0 11.0 0.00 0.04 0.01 51 1013.8
20260506135006 58 245 0.0 11.0 0.00 0.04 0.01 52 1013.7
20260506134514 58 225 2.0 11.0 0.00 0.04 0.01 52 1013.7
20260506134011 59 11 1.0 11.0 0.00 0.04 0.01 52 1013.7
20260506133506 60 34 1.0 10.0 0.00 0.04 0.01 50 1013.7
20260506133020 59 59 0.0 5.0 0.00 0.04 0.01 49 1013.6
20260506132005 58 114 1.0 7.0 0.00 0.04 0.01 51 1013.6
20260506130507 59 217 1.0 4.0 0.00 0.04 0.01 48 1013.7
20260506130013 59 93 0.0 8.0 0.00 0.04 0.01 49 1013.8
20260506125012 60 56 0.0 3.0 0.00 0.04 0.01 48 1013.7
20260506124521 59 237 0.0 3.0 0.00 0.04 0.01 50 1013.8
20260506124006 58 240 0.0 6.0 0.00 0.04 0.01 52 1013.7
20260506123508 59 245 1.0 5.0 0.00 0.04 0.01 49 1013.8
20260506123015 59 229 0.0 5.0 0.00 0.04 0.01 49 1013.7
20260506122510 59 224 0.0 5.0 0.00 0.04 0.01 49 1013.7
20260506122011 58 95 0.0 8.0 0.00 0.04 0.01 51 1013.8
20260506121518 58 62 2.0 8.0 0.00 0.04 0.01 50 1013.7
20260506121010 58 264 0.0 5.0 0.00 0.04 0.01 51 1013.7
20260506120011 58 41 0.0 8.0 0.00 0.04 0.01 52 1013.7
20260506115506 58 190 0.0 8.0 0.00 0.04 0.01 50 1013.8
20260506114531 57 227 0.0 5.0 0.00 0.04 0.01 52 1013.8
20260506114006 57 46 0.0 4.0 0.00 0.04 0.01 52 1013.8
20260506113021 57 46 0.0 5.0 0.00 0.04 0.01 53 1013.9
20260506112510 57 155 0.0 5.0 0.00 0.04 0.01 54 1013.9
20260506112007 57 70 0.0 4.0 0.00 0.04 0.01 53 1013.9
20260506111522 57 139 0.0 5.0 0.00 0.04 0.01 55 1013.9
20260506111012 56 60 1.0 8.0 0.00 0.04 0.01 54 1014.0
20260506110512 57 44 1.0 9.0 0.00 0.04 0.01 54 1013.8
20260506110022 57 233 0.0 9.0 0.00 0.04 0.01 57 1014.0
20260506105513 57 247 0.0 6.0 0.00 0.04 0.01 57 1014.0